Location: Madrid
(40.4000°N, 3.6830°W)
Time: 04:16:12
(UTC+01:00)

ISS - Pass Details

Date: 14 November 2019
Orbit: 412 x 421 km, 51.6° (Epoch: 12 November)

Event Time Altitude Azimuth Distance (km) Brightness Sun altitude
Exits shadow 06:35:34 17° 219° (SW) 1,124 -1.9 -16.0°
Drops below altitude 10° 06:37:29 10° 184° (S) 1,490 -0.9 -15.7°
Sets 06:40:01 0° 165° (SSE) 2,347 0.4 -15.2°
